This is the latest recevied weather packets stored in our database for station/object LU1DNQ-10. If no packets are shown the sender has not sent any weather packets the latest 10 day(s).
| Time | Temp. | Humidity | Pressure | Rain* | Wind** | Luminosity | Snow |
|---|---|---|---|---|---|---|---|
| 1778126546 | 30° C | 43% | 990 hPa | - | - | 0 W/m² | - |
| 1778126224 | 29.44° C | 40% | 990 hPa | - | - | 0 W/m² | - |
| 1778125902 | 29.44° C | 35% | 990 hPa | - | - | 0 W/m² | - |
| 1778125580 | 30° C | 36% | 990 hPa | - | - | 0 W/m² | - |
| 1778125258 | 30° C | 36% | 989 hPa | - | - | 0 W/m² | - |
| 1778124936 | 30.56° C | 36% | 988 hPa | - | - | 0 W/m² | - |
| 1778124614 | 30.56° C | 37% | 989 hPa | - | - | 0 W/m² | - |
| 1778124292 | 31.11° C | 42% | 989 hPa | - | - | 0 W/m² | - |
| 1778123970 | 30.56° C | 45% | 989 hPa | - | - | 0 W/m² | - |
| 1778123648 | 30° C | 44% | 989 hPa | - | - | 0 W/m² | - |
| 1778123326 | 29.44° C | 42% | 989 hPa | - | - | 0 W/m² | - |
| 1778123004 | 28.89° C | 38% | 989 hPa | - | - | 0 W/m² | - |
| 1778122682 | 28.89° C | 30% | 990 hPa | - | - | 0 W/m² | - |
| 1778122360 | 28.89° C | 29% | 990 hPa | - | - | 0 W/m² | - |
| 1778122038 | 29.44° C | 30% | 990 hPa | - | - | 0 W/m² | - |
| 1778121716 | 29.44° C | 30% | 990 hPa | - | - | 0 W/m² | - |
| 1778121394 | 30° C | 32% | 990 hPa | - | - | 0 W/m² | - |
| 1778121072 | 30° C | 33% | 990 hPa | - | - | 0 W/m² | - |
| 1778120750 | 30.56° C | 37% | 990 hPa | - | - | 0 W/m² | - |
| 1778120428 | 30.56° C | 42% | 990 hPa | - | - | 0 W/m² | - |
| 1778120106 | 30.56° C | 44% | 991 hPa | - | - | 0 W/m² | - |
| 1778119784 | 30° C | 44% | 991 hPa | - | - | 0 W/m² | - |
| 1778119462 | 29.44° C | 42% | 991 hPa | - | - | 0 W/m² | - |
| 1778119140 | 28.89° C | 38% | 990 hPa | - | - | 0 W/m² | - |
| 1778118818 | 28.33° C | 31% | 991 hPa | - | - | 0 W/m² | - |
* Rain since midnight (hover to see other rain measurements)
** Current wind speed in m/s (hover to see current wind gust speed)